When you browse on this site, cookies collect data to enhance your experience and personalize the content and advertising you see.
Visit our Privacy Policy to learn more. By continuing to use the site, you agree to this use of cookies and data.
  • In Netherlands
  • List of Countries
  • For 7 days
  • Water Temperature
  • Satellite Maps
  • Weather Map
  • Weather Widgets
  • user-avatar
    Login

    Hourly Weather Qala i Naw

    Today, 25 May, Saturday

    Time Temperature Precipitation Wind Pressure Humidity
    00:00 +21°C° 0 mm 2 mps 682 mmHg 21%
    01:00 +21°C° 0 mm 2 mps 682 mmHg 21%
    02:00 +21°C° 0 mm 2 mps 682 mmHg 22%
    03:00 +20°C° 0 mm 2 mps 682 mmHg 23%
    04:00 +20°C° 0 mm 2 mps 682 mmHg 23%
    05:00 +23°C° 0 mm 2 mps 682 mmHg 23%
    06:00 +24°C° 0 mm 2 mps 683 mmHg 23%
    07:00 +25°C° 0 mm 1 mps 683 mmHg 23%
    08:00 +26°C° 0 mm 2 mps 684 mmHg 22%
    09:00 +27°C° 0 mm 3 mps 684 mmHg 22%
    10:00 +28°C° 0 mm 3 mps 684 mmHg 22%
    11:00 +29°C° 0 mm 4 mps 684 mmHg 21%
    12:00 +29°C° 0 mm 4 mps 684 mmHg 19%
    13:00 +30°C° 0 mm 5 mps 684 mmHg 18%
    14:00 +30°C° 0 mm 5 mps 684 mmHg 19%
    15:00 +30°C° 0 mm 5 mps 684 mmHg 20%
    16:00 +30°C° 0 mm 6 mps 683 mmHg 21%
    17:00 +29°C° 0 mm 5 mps 683 mmHg 24%
    18:00 +27°C° 0 mm 5 mps 684 mmHg 27%
    19:00 +26°C° 0 mm 4 mps 684 mmHg 31%
    20:00 +25°C° 0 mm 3 mps 684 mmHg 33%
    21:00 +25°C° 0 mm 2 mps 684 mmHg 35%
    22:00 +24°C° 0 mm 1 mps 684 mmHg 37%
    23:00 +23°C° 0 mm 1 mps 684 mmHg 39%

    Tomorrow, 26 May, Sunday

    Time Temperature Precipitation Wind Pressure Humidity
    00:00 +22°C° 0 mm 1 mps 683 mmHg 40%
    01:00 +22°C° 0 mm 1 mps 683 mmHg 41%
    02:00 +21°C° 0 mm 1 mps 683 mmHg 41%
    03:00 +20°C° 0 mm 1 mps 682 mmHg 41%
    04:00 +20°C° 0 mm 1 mps 682 mmHg 41%
    05:00 +21°C° 0 mm 1 mps 682 mmHg 36%
    06:00 +22°C° 0 mm 1 mps 683 mmHg 32%
    07:00 +23°C° 0 mm 1 mps 683 mmHg 28%
    08:00 +24°C° 0 mm 1 mps 683 mmHg 26%
    09:00 +25°C° 0 mm 2 mps 683 mmHg 25%
    10:00 +26°C° 0 mm 2 mps 683 mmHg 23%
    11:00 +27°C° 0 mm 2 mps 683 mmHg 21%
    12:00 +28°C° 0 mm 3 mps 683 mmHg 19%
    13:00 +29°C° 0 mm 3 mps 683 mmHg 17%
    14:00 +30°C° 0 mm 4 mps 682 mmHg 16%
    15:00 +30°C° 0 mm 4 mps 682 mmHg 15%
    16:00 +32°C° 0 mm 4 mps 682 mmHg 14%
    17:00 +30°C° 0 mm 3 mps 682 mmHg 16%
    18:00 +28°C° 0 mm 3 mps 682 mmHg 17%
    19:00 +27°C° 0 mm 3 mps 682 mmHg 19%
    20:00 +26°C° 0 mm 2 mps 682 mmHg 22%
    21:00 +25°C° 0 mm 1 mps 682 mmHg 25%
    22:00 +24°C° 0 mm 1 mps 682 mmHg 28%
    23:00 +23°C° 0 mm 1 mps 682 mmHg 28%

    Day after tomorrow, 27 May, Monday

    Time Temperature Precipitation Wind Pressure Humidity
    00:00 +23°C° 0 mm 1 mps 681 mmHg 29%
    01:00 +20°C° 0 mm 0 mps 681 mmHg 30%
    02:00 +19°C° 0 mm 0 mps 681 mmHg 30%
    03:00 +19°C° 0 mm 0 mps 681 mmHg 31%
    04:00 +18°C° 0 mm 0 mps 681 mmHg 31%
    05:00 +20°C° 0 mm 0 mps 681 mmHg 28%
    06:00 +21°C° 0 mm 0 mps 681 mmHg 24%
    07:00 +25°C° 0 mm 1 mps 682 mmHg 21%
    08:00 +26°C° 0 mm 1 mps 682 mmHg 19%
    09:00 +27°C° 0 mm 2 mps 682 mmHg 18%
    10:00 +29°C° 0 mm 2 mps 682 mmHg 16%
    11:00 +30°C° 0 mm 3 mps 682 mmHg 15%
    12:00 +31°C° 0 mm 3 mps 682 mmHg 13%
    13:00 +33°C° 0 mm 3 mps 682 mmHg 12%
    14:00 +33°C° 0 mm 4 mps 682 mmHg 11%
    15:00 +34°C° 0 mm 4 mps 682 mmHg 10%
    16:00 +34°C° 0 mm 4 mps 681 mmHg 9%
    17:00 +33°C° 0 mm 4 mps 681 mmHg 10%
    18:00 +30°C° 0 mm 3 mps 681 mmHg 12%
    19:00 +29°C° 0 mm 3 mps 681 mmHg 13%
    20:00 +28°C° 0 mm 2 mps 682 mmHg 15%
    21:00 +26°C° 0 mm 1 mps 682 mmHg 18%
    22:00 +25°C° 0 mm 1 mps 682 mmHg 20%
    23:00 +25°C° 0 mm 1 mps 681 mmHg 21%

    28 May, Tuesday

    Time Temperature Precipitation Wind Pressure Humidity
    00:00 +24°C° 0 mm 1 mps 681 mmHg 21%
    01:00 +23°C° 0 mm 1 mps 681 mmHg 22%
    02:00 +23°C° 0 mm 1 mps 681 mmHg 23%
    03:00 +22°C° 0 mm 1 mps 680 mmHg 24%
    04:00 +19°C° 0 mm 0 mps 680 mmHg 25%
    05:00 +23°C° 0 mm 1 mps 681 mmHg 22%
    06:00 +24°C° 0 mm 1 mps 681 mmHg 20%
    07:00 +26°C° 0 mm 1 mps 682 mmHg 17%
    08:00 +27°C° 0 mm 2 mps 682 mmHg 16%
    09:00 +28°C° 0 mm 2 mps 682 mmHg 15%
    10:00 +30°C° 0 mm 3 mps 683 mmHg 14%
    11:00 +32°C° 0 mm 4 mps 682 mmHg 13%
    12:00 +33°C° 0 mm 4 mps 682 mmHg 12%
    13:00 +34°C° 0 mm 5 mps 682 mmHg 11%
    14:00 +34°C° 0 mm 6 mps 682 mmHg 11%
    15:00 +35°C° 0 mm 6 mps 682 mmHg 10%
    16:00 +35°C° 0 mm 6 mps 682 mmHg 10%
    17:00 +34°C° 0 mm 6 mps 682 mmHg 11%
    18:00 +32°C° 0 mm 5 mps 682 mmHg 13%
    19:00 +30°C° 0 mm 5 mps 682 mmHg 14%
    20:00 +29°C° 0 mm 3 mps 682 mmHg 16%
    21:00 +27°C° 0 mm 2 mps 682 mmHg 18%
    22:00 +26°C° 0 mm 1 mps 682 mmHg 20%
    23:00 +26°C° 0 mm 1 mps 682 mmHg 20%

    29 May, Wednesday

    Time Temperature Precipitation Wind Pressure Humidity
    00:00 +25°C° 0 mm 1 mps 682 mmHg 21%
    01:00 +24°C° 0 mm 1 mps 682 mmHg 22%
    02:00 +23°C° 0 mm 2 mps 681 mmHg 31%
    03:00 +21°C° 0 mm 3 mps 681 mmHg 40%
    04:00 +20°C° 0 mm 4 mps 681 mmHg 49%
    05:00 +21°C° 0 mm 3 mps 682 mmHg 50%
    06:00 +21°C° 0 mm 3 mps 682 mmHg 52%
    07:00 +22°C° 0 mm 3 mps 682 mmHg 53%
    08:00 +24°C° 0 mm 3 mps 682 mmHg 46%
    09:00 +25°C° 0 mm 2 mps 682 mmHg 40%
    10:00 +27°C° 0 mm 2 mps 682 mmHg 34%
    11:00 +28°C° 0 mm 3 mps 682 mmHg 30%
    12:00 +30°C° 0 mm 3 mps 682 mmHg 26%
    13:00 +32°C° 0 mm 4 mps 681 mmHg 22%
    14:00 +33°C° 0 mm 5 mps 681 mmHg 20%
    15:00 +33°C° 0 mm 5 mps 681 mmHg 17%
    16:00 +34°C° 0 mm 5 mps 681 mmHg 14%
    17:00 +33°C° 0 mm 5 mps 681 mmHg 14%
    18:00 +32°C° 0 mm 5 mps 681 mmHg 15%
    19:00 +30°C° 0 mm 5 mps 682 mmHg 15%
    20:00 +29°C° 0 mm 3 mps 682 mmHg 16%
    21:00 +28°C° 0 mm 2 mps 682 mmHg 17%
    22:00 +27°C° 0 mm 1 mps 682 mmHg 19%
    23:00 +26°C° 0 mm 1 mps 681 mmHg 21%

    30 May, Thursday

    Time Temperature Precipitation Wind Pressure Humidity
    00:00 +25°C° 0 mm 2 mps 681 mmHg 23%
    01:00 +24°C° 0 mm 2 mps 681 mmHg 26%
    02:00 +24°C° 0 mm 2 mps 681 mmHg 30%
    03:00 +23°C° 0 mm 2 mps 680 mmHg 34%
    04:00 +21°C° 0 mm 2 mps 680 mmHg 38%
    05:00 +23°C° 0 mm 2 mps 680 mmHg 38%
    06:00 +24°C° 0 mm 2 mps 681 mmHg 38%
    07:00 +24°C° 0 mm 2 mps 681 mmHg 38%
    08:00 +25°C° 0 mm 3 mps 681 mmHg 36%
    09:00 +26°C° 0 mm 3 mps 681 mmHg 33%
    10:00 +28°C° 0 mm 3 mps 681 mmHg 30%
    11:00 +29°C° 0 mm 3 mps 680 mmHg 27%
    12:00 +30°C° 0 mm 3 mps 680 mmHg 24%
    13:00 +31°C° 0 mm 3 mps 680 mmHg 21%
    14:00 +33°C° 0 mm 4 mps 680 mmHg 19%
    15:00 +33°C° 0 mm 5 mps 679 mmHg 18%
    16:00 +34°C° 0 mm 5 mps 679 mmHg 16%
    17:00 +33°C° 0 mm 6 mps 680 mmHg 17%
    18:00 +32°C° 0 mm 6 mps 680 mmHg 18%
    19:00 +30°C° 0 mm 6 mps 681 mmHg 19%
    20:00 +27°C° 0 mm 6 mps 681 mmHg 33%
    21:00 +24°C° 0 mm 6 mps 681 mmHg 47%
    22:00 +21°C° 0 mm 6 mps 681 mmHg 61%
    23:00 +20°C° 0 mm 5 mps 681 mmHg 63%
    Show more